Location: Castillon
(43.1358°N, 0.8654°E)
Time: 19:55:24
(UTC+00:00)

Cosmos 1417 Rocket - Pass Details

Date: 24 January 2021
Orbit: 952 x 998 km, 83.0° (Epoch: 28 February)

Event Time Altitude Azimuth Distance (km) Brightness Sun altitude
Rises 19:20:46 0° 352° (N) 3,662 7.6 -25.8°
Reaches altitude 10° 19:23:16 10° 352° (N) 2,718 6.9 -26.3°
Maximum altitude 19:29:31 89° 269° (W) 982 4.4 -27.4°
Drops below altitude 10° 19:35:47 10° 175° (S) 2,731 6.8 -28.6°
Sets 19:38:18 0° 175° (S) 3,681 7.5 -29.0°
